Weather History for KPCZ - August, 2013

Change the Weather History Date:

Tuesday, August 6, 2013

  Actual Average (KOSH) Record (KOSH)
Temperature  
Mean Temperature 75 °F -  
Max Temperature 85 °F 80 °F - (-1)
Min Temperature 65 °F 57 °F - (-1)
Cooling Degree Days 10    
Growing Degree Days 25 (Base 50)    
Moisture  
Dew Point 62 °F    
Average Humidity 68    
Maximum Humidity 92    
Minimum Humidity 33    
Precipitation  
Precipitation 0.00 in - - ()
Sea Level Pressure  
Sea Level Pressure 29.82 in    
Wind  
Wind Speed 3 mph (SW)    
Max Wind Speed 16 mph    
Max Gust Speed 20 mph    
Visibility 9 miles    
Events      
Averages and records for this station are not official NWS values.
T = Trace of Precipitation, MM = Missing Value Source: NWS Daily Summary

Daily Weather History Graph

Daily Weather History Graph

Search for Another Location

Airport or City:

Trip Planner

Search our weather history database for the weather conditions in past years. The results will help you decide how hot, cold, wet, or windy it might be!

Date:

Astronomy

Aug. 06, 2013 Rise Set
Actual Time 5:49 AM CDT 8:13 PM CDT
Civil Twilight 5:16 AM CDT 8:46 PM CDT
Nautical Twilight 4:36 AM CDT 9:26 PM CDT
Astronomical Twilight 3:50 AM CDT 10:12 PM CDT
Moon 5:42 AM CDT (8/6) 7:45 PM CDT (8/6)
Length of Visible Light 15h 29m
Length of Day
14h 24m
Waning Crescent, 0% of the Moon is Illuminated
Aug 6
Waning Crescent
Aug 6
New
Aug 14
First Quarter
Aug 20
Full
Aug 28
Last Quarter

Hourly Weather History & Observations

Time (CDT) Temp. Heat Index Dew Point Humidity Pressure Visibility Wind Dir Wind Speed Gust Speed Precip Events Conditions
12:15 AM 66.6 °F - 61.5 °F 84% 29.86 in 10.0 mi Calm Calm - N/A   Overcast
12:35 AM 66.4 °F - 61.3 °F 84% 29.87 in 10.0 mi Calm Calm - N/A   Overcast
12:55 AM 66.6 °F - 61.7 °F 84% 29.86 in 10.0 mi Calm Calm - N/A   Overcast
1:15 AM 66.6 °F - 61.7 °F 84% 29.86 in 10.0 mi Calm Calm - N/A   Overcast
1:35 AM 66.2 °F - 61.7 °F 85% 29.86 in 10.0 mi Calm Calm - N/A   Overcast
1:55 AM 66.2 °F - 61.7 °F 85% 29.85 in 10.0 mi Calm Calm - N/A   Overcast
2:15 AM 66.2 °F - 61.7 °F 85% 29.85 in 10.0 mi Calm Calm - N/A   Overcast
2:35 AM 66.2 °F - 62.1 °F 86% 29.85 in 10.0 mi Calm Calm - N/A   Overcast
2:55 AM 66.2 °F - 62.1 °F 86% 29.84 in 10.0 mi Calm Calm - N/A   Overcast
3:15 AM 65.8 °F - 62.2 °F 88% 29.84 in 10.0 mi Calm Calm - N/A   Overcast
3:35 AM 65.8 °F - 62.2 °F 88% 29.83 in 10.0 mi Calm Calm - N/A   Overcast
3:55 AM 65.7 °F - 62.1 °F 88% 29.84 in 10.0 mi Calm Calm - N/A   Overcast
4:15 AM 66.2 °F - 62.8 °F 89% 29.84 in 10.0 mi Calm Calm - N/A   Overcast
4:35 AM 66.2 °F - 63.0 °F 89% 29.84 in 7.0 mi Calm Calm - N/A   Overcast
4:55 AM 66.2 °F - 63.1 °F 90% 29.83 in 5.0 mi Calm Calm - N/A   Overcast
5:15 AM 65.8 °F - 63.1 °F 91% 29.84 in 7.0 mi Calm Calm - N/A   Overcast
5:35 AM 66.0 °F - 63.3 °F 91% 29.83 in 5.0 mi Calm Calm - N/A   Overcast
5:55 AM 65.8 °F - 63.1 °F 91% 29.82 in 5.0 mi SSE 3.5 mph - N/A   Overcast
6:15 AM 65.8 °F - 63.1 °F 91% 29.83 in 4.0 mi Calm Calm - N/A   Overcast
6:35 AM 65.3 °F - 62.8 °F 92% 29.84 in 3.0 mi Calm Calm - N/A   Mostly Cloudy
6:55 AM 66.2 °F - 63.7 °F 92% 29.83 in 4.0 mi Calm Calm - N/A   Scattered Clouds
7:15 AM 67.3 °F - 64.8 °F 92% 29.84 in 5.0 mi Calm Calm - N/A   Clear
7:35 AM 67.8 °F - 64.6 °F 89% 29.84 in 7.0 mi SSW 3.5 mph - N/A   Clear
7:55 AM 69.3 °F - 64.6 °F 85% 29.84 in 10.0 mi South 3.5 mph - N/A   Clear
8:15 AM 69.6 °F - 63.5 °F 81% 29.84 in 10.0 mi SW 3.5 mph - N/A   Scattered Clouds
8:35 AM 71.6 °F - 63.5 °F 76% 29.85 in 10.0 mi SSW 5.8 mph - N/A   Scattered Clouds
8:55 AM 72.9 °F - 62.1 °F 69% 29.84 in 10.0 mi South 5.8 mph - N/A   Scattered Clouds
9:15 AM 72.7 °F - 62.6 °F 71% 29.84 in 10.0 mi SW 4.6 mph - N/A   Mostly Cloudy
9:35 AM 72.9 °F - 63.3 °F 72% 29.85 in 10.0 mi SSW 8.1 mph - N/A   Overcast
9:55 AM 72.0 °F - 63.7 °F 75% 29.87 in 10.0 mi SW 8.1 mph - N/A   Overcast
10:15 AM 72.7 °F - 64.0 °F 74% 29.87 in 10.0 mi SW 8.1 mph - N/A   Overcast
10:35 AM 73.4 °F - 63.5 °F 71% 29.86 in 10.0 mi SW 9.2 mph - N/A   Overcast
10:55 AM 75.6 °F - 63.5 °F 66% 29.85 in 10.0 mi SSW 10.4 mph - N/A   Scattered Clouds
11:15 AM 76.3 °F - 63.0 °F 63% 29.85 in 10.0 mi SW 8.1 mph - N/A   Mostly Cloudy
11:35 AM 78.1 °F - 64.2 °F 62% 29.85 in 10.0 mi SSW 10.4 mph - N/A   Scattered Clouds
11:55 AM 78.1 °F - 63.7 °F 61% 29.84 in 10.0 mi SW 10.4 mph - N/A   Scattered Clouds
12:15 PM 78.1 °F - 63.3 °F 60% 29.84 in 10.0 mi SW 10.4 mph 17.3 mph N/A   Clear
12:35 PM 78.3 °F - 63.7 °F 61% 29.83 in 10.0 mi SSW 9.2 mph - N/A   Scattered Clouds
12:55 PM 81.3 °F 82.7 °F 63.5 °F 55% 29.82 in 10.0 mi SW 8.1 mph - N/A   Scattered Clouds
1:15 PM 79.9 °F - 62.8 °F 56% 29.82 in 10.0 mi SW 8.1 mph - N/A   Scattered Clouds
1:35 PM 81.9 °F 82.5 °F 61.2 °F 49% 29.80 in 10.0 mi SW 16.1 mph 19.6 mph N/A   Scattered Clouds
1:55 PM 81.5 °F 82.0 °F 59.9 °F 48% 29.81 in 10.0 mi SW 11.5 mph 16.1 mph N/A   Scattered Clouds
2:15 PM 83.3 °F 83.7 °F 61.0 °F 47% 29.80 in 10.0 mi SW 15.0 mph 18.4 mph N/A   Scattered Clouds
2:35 PM 83.3 °F 83.2 °F 59.5 °F 44% 29.80 in 10.0 mi WSW 13.8 mph - N/A   Clear
2:55 PM 83.7 °F 83.6 °F 59.4 °F 44% 29.80 in 10.0 mi WSW 10.4 mph 17.3 mph N/A   Scattered Clouds
3:15 PM 83.8 °F 83.6 °F 59.2 °F 43% 29.80 in 10.0 mi WSW 12.7 mph 16.1 mph N/A   Scattered Clouds
3:35 PM 83.3 °F 82.9 °F 58.3 °F 42% 29.80 in 10.0 mi West 11.5 mph - N/A   Scattered Clouds
3:55 PM 83.7 °F 83.0 °F 57.2 °F 40% 29.79 in 10.0 mi West 10.4 mph - N/A   Scattered Clouds
4:15 PM 85.6 °F 84.8 °F 58.3 °F 39% 29.79 in 10.0 mi WSW 10.4 mph 16.1 mph N/A   Clear
4:35 PM 85.8 °F 85.0 °F 58.5 °F 39% 29.80 in 10.0 mi SW 8.1 mph - N/A   Scattered Clouds
4:55 PM 85.8 °F 85.2 °F 58.8 °F 40% 29.79 in 10.0 mi SW 10.4 mph - N/A   Scattered Clouds
5:15 PM 85.1 °F 84.4 °F 57.9 °F 40% 29.79 in 10.0 mi SW 10.4 mph - N/A   Scattered Clouds
5:35 PM 85.5 °F 84.1 °F 55.9 °F 36% 29.79 in 10.0 mi SW 11.5 mph - N/A   Clear
5:55 PM 85.3 °F 84.1 °F 56.1 °F 37% 29.78 in 10.0 mi WSW 9.2 mph - N/A   Clear
6:15 PM 85.1 °F - 52.9 °F 33% 29.78 in 10.0 mi WSW 8.1 mph - N/A   Clear
6:35 PM 84.2 °F 82.8 °F 53.4 °F 35% 29.78 in 10.0 mi SW 6.9 mph - N/A   Clear
6:55 PM 83.3 °F 82.0 °F 53.1 °F 35% 29.78 in 10.0 mi WSW 5.8 mph - N/A   Clear
7:15 PM 82.4 °F 81.7 °F 55.4 °F 39% 29.78 in 10.0 mi SW 4.6 mph - N/A   Clear
7:35 PM 80.4 °F 80.9 °F 58.5 °F 47% 29.78 in 10.0 mi South 3.5 mph - N/A   Clear
7:55 PM 78.3 °F - 60.8 °F 55% 29.78 in 10.0 mi SSW 4.6 mph - N/A   Clear
8:15 PM 76.3 °F - 62.1 °F 61% 29.77 in 10.0 mi Calm Calm - N/A   Clear
8:35 PM 74.5 °F - 62.8 °F 67% 29.77 in 10.0 mi South 3.5 mph - N/A   Clear
8:55 PM 73.2 °F - 62.8 °F 70% 29.78 in 10.0 mi Calm Calm - N/A   Clear
9:15 PM 71.2 °F - 62.8 °F 75% 29.78 in 10.0 mi Calm Calm - N/A   Scattered Clouds
9:35 PM 70.9 °F - 63.5 °F 77% 29.77 in 10.0 mi South 3.5 mph - N/A   Scattered Clouds
9:55 PM 70.7 °F - 63.9 °F 79% 29.77 in 10.0 mi South 3.5 mph - N/A   Scattered Clouds
10:15 PM 71.6 °F - 64.0 °F 77% 29.76 in 10.0 mi South 4.6 mph - N/A   Clear
10:35 PM 72.3 °F - 64.0 °F 75% 29.76 in 10.0 mi South 5.8 mph - N/A   Clear
10:55 PM 73.0 °F - 64.4 °F 74% 29.75 in 10.0 mi South 6.9 mph - N/A   Clear
11:15 PM 73.4 °F - 64.6 °F 74% 29.74 in 10.0 mi South 6.9 mph - N/A   Clear
11:35 PM 73.8 °F - 65.1 °F 74% 29.73 in 10.0 mi SSW 6.9 mph - N/A   Clear
11:55 PM 74.5 °F - 66.6 °F 76% 29.75 in 10.0 mi SSW 8.1 mph - N/A   Scattered Clouds